This is the latest recevied weather packets stored in our database for station/object KC5EZZ-2. If no packets are shown the sender has not sent any weather packets the latest 10 day(s).
| Time | Temp. | Humidity | Pressure | Rain* | Wind** | Luminosity | Snow |
|---|---|---|---|---|---|---|---|
| 1777968194 | 21.11° C | - | - | 0 mm | 5.81 m/s, 198° | - | - |
| 1777967891 | 21.11° C | - | - | 0 mm | 4.47 m/s, 207° | - | - |
| 1777967592 | 21.11° C | - | - | 0 mm | 5.36 m/s, 186° | - | - |
| 1777967292 | 21.11° C | - | - | 0 mm | 4.47 m/s, 193° | - | - |
| 1777966990 | 21.11° C | - | - | 0 mm | 4.92 m/s, 204° | - | - |
| 1777966691 | 21.67° C | - | - | 0 mm | 5.81 m/s, 170° | - | - |
| 1777966391 | 21.67° C | - | - | 0 mm | 7.15 m/s, 183° | - | - |
| 1777966088 | 21.67° C | - | - | 0 mm | 5.81 m/s, 183° | - | - |
| 1777965789 | 21.67° C | - | - | 0 mm | 6.26 m/s, 195° | - | - |
| 1777965489 | 21.67° C | - | - | 0 mm | 6.71 m/s, 158° | - | - |
| 1777965187 | 21.67° C | - | - | 0 mm | 5.36 m/s, 184° | - | - |
| 1777964887 | 21.67° C | - | - | 0 mm | 4.47 m/s, 193° | - | - |
| 1777964588 | 21.67° C | - | - | 0 mm | 5.36 m/s, 176° | - | - |
| 1777964285 | 21.67° C | - | - | 0 mm | 5.81 m/s, 193° | - | - |
| 1777963985 | 21.67° C | - | - | 0 mm | 4.47 m/s, 177° | - | - |
| 1777963686 | 21.67° C | - | - | 0 mm | 5.81 m/s, 184° | - | - |
| 1777963383 | 21.67° C | - | - | 0 mm | 4.92 m/s, 203° | - | - |
| 1777963084 | 21.67° C | - | - | 0 mm | 4.92 m/s, 204° | - | - |
| 1777962784 | 21.67° C | - | - | 0 mm | 4.92 m/s, 167° | - | - |
| 1777962481 | 21.67° C | - | - | 0 mm | 5.81 m/s, 169° | - | - |
| 1777962181 | 22.22° C | - | - | 0 mm | 5.81 m/s, 169° | - | - |
| 1777961881 | 22.22° C | - | - | 0 mm | 4.92 m/s, 190° | - | - |
| 1777961579 | 22.22° C | - | - | 0 mm | 4.92 m/s, 163° | - | - |
| 1777961279 | 22.22° C | - | - | 0 mm | 5.36 m/s, 177° | - | - |
| 1777960980 | 22.22° C | - | - | 0 mm | 4.92 m/s, 166° | - | - |
* Rain latest hour (hover to see other rain measurements)
** Current wind speed in m/s (hover to see current wind gust speed)